Regional Weather Roundup
Issued by NWS

Home | Current Version | Previous Version | Text Only | Print | Product List | Glossary Off
Versions: 1 2 3 4 5 6 7 8 9 10 11 12 13 14 15 16 17 18 19 20 21 22 23 24 25 26 27 28 29 30 31 32 33 34 35 36 37 38 39 40 41 42 43 44 45 46 47 48 49 50

000
ASUS45 KBOU 222107
RWRCO

WEATHER ROUNDUP FOR COLORADO
NATIONAL WEATHER SERVICE DENVER/BOULDER CO
300 PM MDT TUE JUL 22 2014

NOTE: "FAIR" INDICATES FEW OR NO CLOUDS BELOW 12000 FEET WITH NO
SIGNIFICANT WEATHER AND/OR OBSTRUCTIONS TO VISIBILITY.

COZ001>005-013-030-031-222200-
...NORTHWEST COLORADO...

CITY           SKY/WX    TMP DP  RH WIND       PRES   REMARKS
CRAIG          SUNNY     94  23   8 W6        30.34F
HAYDEN         SUNNY     90  27  10 NW5       30.38S
MEEKER         SUNNY     93  24   8 MISG      30.34F
MOUNT WERNER   NOT AVBL
STEAMBOAT SPGS SUNNY     87  31  13 CALM      30.41F
WALDEN         SUNNY     81  23  12 S9G17     30.52S
$$

COZ006>008-011-222200-
...WEST CENTRAL VALLEYS...

CITY           SKY/WX    TMP DP  RH WIND       PRES   REMARKS
GRAND JUNCTION SUNNY     97  28   8 W12       30.21F
MONTROSE       SUNNY     95  33  11 N8        30.29F
EAGLE          MOSUNNY   90  28  11 CALM      30.38F
RIFLE          SUNNY     96  22   7 CALM      30.27F
DELTA          SUNNY     99  23   6 SW3       30.24F
NUCLA          SUNNY     97  21   6 NW8       30.32F
$$

COZ017>023-064>068-222200-
...SOUTHWEST COLORADO...

CITY           SKY/WX    TMP DP  RH WIND       PRES   REMARKS
DURANGO        SUNNY     92  23   8 CALM      30.34F
CORTEZ         SUNNY     97  21   6 N8        30.27F
PAGOSA SPRINGS SUNNY     89  26  10 NE6       30.44F
TELLURIDE      MOSUNNY   82  25  12 NW8       30.55F
WOLF CREEK PAS NOT AVBL
$$

COZ009-010-012-014-032>034-037-058>063-222200-
...CENTRAL COLORADO...

CITY           SKY/WX    TMP DP  RH WIND       PRES   REMARKS
ASPEN          SUNNY     88  20   8 N8G18     30.46F
BUENA VISTA    MOSUNNY   88   9   5 SE9       30.47F
COPPER MTN     MOSUNNY   73  19  13 SW6G20    30.87S
BERTHOUD PASS  PTSUNNY   59  45  58 CALM      30.93F
COTTONWOOD PAS MOSUNNY   79   3   5 SE14      30.66S
GUNNISON       SUNNY     86  25  10 SE6       30.49F
KREMMLING      SUNNY     90  10   5 S5        30.45F
LEADVILLE      MOSUNNY   77  18  11 VRB3      30.65F
MONARCH PASS   MOSUNNY   64  28  25 E8        30.95F
SALIDA         MOSUNNY   91  18   7 E7        30.50F
SUNLIGHT       SUNNY     73  30  20 CALM      30.78S
WILKERSON PASS MOSUNNY   72   9   8 CALM      30.83S
$$

COZ069>075-222200-
...SAN LUIS VALLEY/SANGRE DE CRISTO MOUNTAINS...

CITY           SKY/WX    TMP DP  RH WIND       PRES   REMARKS
ALAMOSA        SUNNY     87  35  15 N6        30.43F
LA VETA PASS   SUNNY     75  32  20 NE7G20    30.71S
SAGUACHE       MOSUNNY   86  30  13 S6G16     30.48S
$$

COZ035-036-038>040-222200-
...NORTHERN COLORADO FRONT RANGE...

CITY           SKY/WX    TMP DP  RH WIND       PRES   REMARKS
DENVER INTL AP MOSUNNY   92  46  20 VRB7      30.30F
DMNS CITY PARK   N/A     92  48  21 NE1G9     30.30F
AURORA         MOSUNNY   90  51  26 NE6       30.33F
FRONT RANGE AP NOT AVBL
ERIE MUNI ARPT SUNNY     89  47  23 CALM      30.28F
BOULDER MUN AP SUNNY     88  52  29 SE3       30.30F
CENTENNIAL     MOSUNNY   89  44  20 NE7       30.34F
BROOMFIELD     MOSUNNY   86  50  28 SE3       30.34F
FORT COLLINS   SUNNY     91  54  27 E8G17     30.27F
LONGMONT       SUNNY     93  49  22 N6        30.30F
$$

COZ041-046-047-076>085-087-088-222200-
...PIKES PEAK/PALMER DIVIDE AND SOUTHERN FOOTHILLS...

CITY           SKY/WX    TMP DP  RH WIND       PRES   REMARKS
COLO. SPRINGS  MOSUNNY   87  47  24 E14       30.38R
A. F. ACADEMY  MOSUNNY   85  44  24 E10       30.40R
ELLICOTT       SUNNY     91  47  21 SE10      30.35F
FALCON         SUNNY     86  46  24 NE13G18   30.44S
FORT CARSON    MOSUNNY   90  46  21 E7        30.35S
LIMON          SUNNY     91  46  21 VRB3G23   30.30F
MONUMENT HILL  SUNNY     82  41  23 E10G16    30.44F
TRINIDAD       SUNNY     94  43  17 NE14      30.30F
$$

COZ042>045-048>051-090-091-222200-
...NORTHEAST COLORADO...

CITY           SKY/WX    TMP DP  RH WIND       PRES   REMARKS
GREELEY ARPT   SUNNY     90  55  31 E6        30.27F
AKRON          SUNNY     91  55  29 E14       30.28S
BURLINGTON     SUNNY     94  54  25 VRB3      30.21S
WRAY             N/A     96  55  25 E12G18    30.20F
STERLING       SUNNY     97  59  28 SE5       30.21F
HOLYOKE        SUNNY     95  59  30 E8        30.23F
FORT MORGAN    SUNNY     95  49  21 E9G20     30.26F
$$

COZ086-089-092>099-222200-
...SOUTHEAST COLORADO...

CITY           SKY/WX    TMP DP  RH WIND       PRES   REMARKS
PUEBLO         SUNNY     95  48  20 SE14G20   30.22F
LA JUNTA       SUNNY     95  54  25 SE7       30.19F
LAMAR          SUNNY     97  54  23 SE6G17    30.14S
SPRINGFIELD      N/A     92  60  34 E9        30.20F
$$



USA.gov is the U.S. government's official web portal to all federal, state and local government web resources and services.